Chattanooga, TN

1:58 AM EDT on April 25, 2018 (GMT -0400)
Lovell

Weather History for KCHA - June, 2012

Change the Weather History Date:

Monday, June 18, 2012

  Actual Average Record
Temperature  
Mean Temperature 76 °F 77 °F  
Max Temperature 88 °F 88 °F 100 °F (1936)
Min Temperature 63 °F 67 °F 48 °F (1974)
Cooling Degree Days 11 12  
Month to date cooling degree days 159 185  
Year to date cooling degree days 584 381  
Since 1 June cooling degree days 159 185  
Growing Degree Days 26 (Base 50)    
Moisture  
Dew Point 60 °F    
Average Humidity 62    
Maximum Humidity 93    
Minimum Humidity 31    
Precipitation  
Precipitation 0.00 in 0.14 in 1.95 in (1882)
Month to date precipitation 2.43 2.34  
Year to date precipitation 20.37 25.16  
Snow  
Snow 0.00 in - - ()
Month to date snowfall 0.0  
Since 1 June snowfall 0.0  
Snow Depth 0.00 in    
Sea Level Pressure  
Sea Level Pressure 30.03 in    
Wind  
Wind Speed 3 mph (South)    
Max Wind Speed 13 mph    
Max Gust Speed 17 mph    
Visibility 10 miles    
Events      
T = Trace of Precipitation, MM = Missing Value Source: NWS Daily Summary

Daily Weather History Graph

Daily Weather History Graph

Search for Another Location

Airport or City:

Astronomy

Jun. 18, 2012 Rise Set
Actual Time 6:26 AM EDT 8:57 PM EDT
Civil Twilight 5:56 AM EDT 9:27 PM EDT
Nautical Twilight 5:20 AM EDT 10:04 PM EDT
Astronomical Twilight 4:39 AM EDT 10:44 PM EDT
Moon 5:39 AM EDT (6/18) 8:16 PM EDT (6/18)
Length of Visible Light 15h 30m
Length of Day
14h 30m
Waning Crescent, 1% of the Moon is Illuminated
Jun 18
Waning Crescent
Jun 19
New
Jun 26
First Quarter
Jul 3
Full
Jul 10
Last Quarter

Hourly Weather History & Observations

Time (EDT) Temp. Heat Index Dew Point Humidity Pressure Visibility Wind Dir Wind Speed Gust Speed Precip Events Conditions
12:53 AM 70.0 °F - 62.1 °F 76% 30.01 in 10.0 mi Calm Calm - N/A   Clear
1:53 AM 69.1 °F - 62.1 °F 78% 30.01 in 10.0 mi Calm Calm - N/A   Clear
2:53 AM 66.0 °F - 62.1 °F 87% 30.00 in 10.0 mi Calm Calm - N/A   Clear
3:53 AM 66.0 °F - 62.1 °F 87% 29.99 in 10.0 mi Calm Calm - N/A   Clear
4:53 AM 64.9 °F - 62.1 °F 90% 30.00 in 10.0 mi Calm Calm - N/A   Clear
5:53 AM 64.9 °F - 62.1 °F 90% 30.02 in 10.0 mi Calm Calm - N/A   Clear
6:53 AM 64.9 °F - 61.0 °F 87% 30.04 in 10.0 mi Calm Calm - N/A   Partly Cloudy
7:53 AM 66.9 °F - 63.0 °F 87% 30.06 in 10.0 mi Calm Calm - N/A   Partly Cloudy
8:53 AM 72.0 °F - 63.0 °F 73% 30.06 in 10.0 mi Calm Calm - N/A   Partly Cloudy
9:53 AM 75.9 °F - 60.1 °F 58% 30.07 in 10.0 mi Variable 3.5 mph - N/A   Partly Cloudy
10:53 AM 80.1 °F 80.9 °F 60.1 °F 50% 30.08 in 10.0 mi Variable 4.6 mph - N/A   Scattered Clouds
11:53 AM 82.9 °F 83.3 °F 61.0 °F 47% 30.08 in 10.0 mi SSE 4.6 mph - N/A   Scattered Clouds
12:53 PM 84.9 °F 84.4 °F 59.0 °F 41% 30.07 in 10.0 mi SSW 10.4 mph - N/A   Scattered Clouds
1:53 PM 86.0 °F 84.9 °F 57.0 °F 37% 30.05 in 10.0 mi South 8.1 mph - N/A   Scattered Clouds
2:53 PM 87.1 °F 85.1 °F 54.0 °F 32% 30.04 in 10.0 mi SE 9.2 mph - N/A   Scattered Clouds
3:53 PM 87.1 °F 85.7 °F 55.9 °F 35% 30.03 in 10.0 mi South 8.1 mph - N/A   Scattered Clouds
4:53 PM 88.0 °F 86.5 °F 55.9 °F 34% 30.01 in 10.0 mi SSE 8.1 mph - N/A   Scattered Clouds
5:53 PM 87.1 °F 86.1 °F 57.9 °F 37% 30.01 in 10.0 mi South 5.8 mph - N/A   Scattered Clouds
6:53 PM 87.1 °F 85.9 °F 57.0 °F 36% 30.00 in 10.0 mi SW 8.1 mph - N/A   Partly Cloudy
7:53 PM 86.0 °F 85.0 °F 57.9 °F 38% 30.01 in 10.0 mi South 4.6 mph - N/A   Partly Cloudy
8:53 PM 84.0 °F 83.8 °F 59.0 °F 43% 30.01 in 10.0 mi Calm Calm - N/A   Scattered Clouds
9:53 PM 79.0 °F - 61.0 °F 54% 30.03 in 10.0 mi Calm Calm - N/A   Scattered Clouds
10:53 PM 75.9 °F - 64.0 °F 67% 30.06 in 10.0 mi Calm Calm - N/A   Scattered Clouds
11:53 PM 75.9 °F - 61.0 °F 60% 30.06 in 10.0 mi Calm Calm - N/A   Clear